www.pogodaiklimat.ru

Погода и климат >> Архив погоды >> Ирак >> Rifai


ПОГОДА в Rifai

  • Прогноз погоды в Rifai
  • Монитор погоды в Rifai
  • Климат города

АРХИВ ПОГОДЫ в Rifai

Время (UTC), дата Ветер
(напр.,м/с)
 
Видим.   Явления Облачность Т
(С)
Тd
(С)
f
(%)
Тe
(С)
Тes
(С)
Комфортность P
(гПа)
Po
(гПа)
Тmin
(С)
Tmax
(С)
R
(мм)
R24
(мм)
S
(см)
21 10.10 СЗ 3 10 км ясно +26.4 +9.3 34 +27 +27 жарко 1008.4 1008.0
03 11.10 СЗ 6 10 км ясно +24.0 +10.7 43 +25 +25 комфорт 1001.1 1001.0
06 11.10 СЗ 3 10 км ясно +28.8 +11.0 33 +29 +34 жарко 1011.3 1011.0 +24.0
09 11.10 С 6 10 км ясно +33.0 +13.1 30 +34 +39 очень
жарко
1010.8 1011.0
12 11.10 С 6 10 км ясно +36.8 +10.3 20 +36 +38 очень
жарко
1010.8 1011.0
15 11.10 СЗ 3 10 км ясно +31.0 +12.4 32 +32 +32 жарко 1011.2 1011.0
18 11.10 СЗ 3 10 км ясно +25.4 +11.7 42 +27 +27 жарко 1011.9 1012.0 +36.8
06 12.10 СЗ 5 10 км ясно +27.6 +11.6 37 +29 +32 жарко 1014.2 1014.0 +19.8
09 12.10 С 5 8000 м пыль ясно +32.2 +9.8 25 +32 +38 жарко 1013.7 1014.0
12 12.10 СЗ 6 6000 м пыль ясно +33.6 +11.6 26 +33 +36 жарко 1012.5 1013.0
15 12.10 С 3 10 км ясно +30.6 +6.9 23 +29 +29 жарко 1012.8 1013.0
00 13.10 СЗ 3 10 км ясно +22.2 +7.1 38 +23 +23 комфорт 1012.2 1012.0
03 13.10 СЗ 4 10 км 3/0
[As trans]
+21.4 +6.9 39 +22 +22 комфорт 1012.4 1012.0
06 13.10 СЗ 2 10 км ясно +26.0 +9.7 36 +27 +33 жарко 1013.3 1013.0 +21.0
09 13.10 З 5 10 км ясно +35.2 +7.8 19 +33 +40 жарко 1011.8 1012.0
12 13.10 СЗ 3 10 км ясно +36.6 +11.0 21 +36 +40 очень
жарко
1009.8 1010.0
15 13.10 З 2 10 км ясно +32.8 +10.8 26 +32 +32 жарко 1009.5 1010.0
18 13.10 СЗ 2 10 км ясно +28.6 +9.7 31 +29 +29 жарко 1010.6 1011.0 +36.8
21 13.10 З 2 10 км ясно +26.8 +8.9 32 +27 +27 жарко 1010.3 1010.0
00 14.10 СЗ 2 10 км ясно +25.2 +6.9 31 +25 +25 комфорт 1010.0 1010.0
03 14.10 СЗ 2 10 км ясно +23.2 +8.6 39 +24 +24 комфорт 1010.4 1010.0
09 14.10 СЗ 3 10 км ясно +35.0 +5.4 16 +32 +43 жарко 1010.5 1011.0
12 14.10 штиль 0 10 км ясно +36.4 +8.9 19 +35 +42 очень
жарко
1009.1 1009.0
15 14.10 З 3 10 км ясно +33.0 +10.6 25 +32 +32 жарко 1008.8 1009.0
21 14.10 штиль 0 10 км ясно +25.4 +7.2 31 +25 +25 комфорт 1009.4 1009.0
03 15.10 штиль 0 10 км ясно +22.2 +7.1 38 +23 +23 комфорт 1010.6 1011.0
06 15.10 штиль 0 10 км ясно +29.0 +10.3 31 +29 +37 жарко 1011.1 1011.0 +22.0
12 15.10 штиль 0 10 км ясно +37.2 +11.5 21 +36 +43 очень
жарко
1009.2 1009.0
15 15.10 штиль 0 10 км ясно +33.6 +14.1 31 +35 +35 душно 1009.2 1009.0
06 16.10 З 2 10 км ясно +27.2 +9.5 33 +28 +33 жарко 1011.3 1011.0 +20.0
09 16.10 З 2 10 км ясно +34.0 +9.1 22 +33 +45 жарко 1012.2 1012.0
12 16.10 штиль 0 10 км ясно +35.4 +9.4 20 +34 +41 очень
жарко
1010.4 1010.0
15 16.10 штиль 0 10 км ясно +31.6 +10.9 28 +32 +32 жарко 1010.0 1010.0
18 16.10 З 2 10 км ясно +28.6 +9.7 31 +29 +29 жарко 1010.6 1011.0 +35.4
21 16.10 З 3 10 км ясно +26.0 +8.2 32 +26 +26 жарко 1011.3 1011.0
03 17.10 З 3 10 км ясно +22.0 +8.8 43 +23 +23 комфорт 1011.9 1012.0
06 17.10 С 4 10 км ясно +28.2 +4.9 23 +27 +31 жарко 1013.1 1013.0 +20.5
09 17.10 С 2 10 км ясно +33.0 +5.3 18 +31 +43 жарко 1012.4 1012.0
12 17.10 С 4 6000 м пыль ясно +33.4 +3.3 15 +31 +34 жарко 1011.0 1011.0

 

Местоположение метеостанции Rifai (Ирак): широта 31.72 долгота 46.10 высота над уровнем моря 6 м.

В архиве по умолчанию представлена погода в Rifai за последнюю неделю. Архивные данные за месяц целиком и за предыдущие месяцы, начиная с января 2011 года, Вы можете получить, выбрав интересующий диапазон дат из раскрывающегося списка и нажав кнопку "Ввод!".

Внимание! Время в таблицах - всемирное. Для получения местного времени необходимо прибавить поправку, которая в Rifai равна 3 ч.

Смотрите также архив погоды в соседних городах и на ближайших метеорологических станциях:

Погода в Kut-Al-Hai (Ирак) (50 км)
Погода в Nasiriya (Ирак) (72 км)
Погода в Samawah (Ирак) (92 км)
Погода в Ubaydah Bin Al Jarrah (Ирак) (92 км)
Погода в Ali Al-Gharbi (Ирак) (102 км)
Погода в Amarah (Ирак) (102 км)
Погода в Diwaniya (Ирак) (110 км)
Погода в Badrah (Ирак) (154 км)
Погода в Azizyah (Ирак) (165 км)
Погода в Najaf (Ирак) (171 км)

Пояснения к столбцам:

Ветер - указаны скорость ветра в м/с - средняя за 10 мин, порывы в срок и между сроками (в фигурных скобках) и направление, откуда дует ветер: С - северный, СВ - северо-восточный, В - восточный, ЮВ - юго-восточный, Ю - южный, ЮЗ - юго-западный, З - западный, СЗ - северо-западный.
Видимость - горизонтальная дальность видимости в метрах или километрах. При видимости от 1 до 10 км при отсутствии осадков обычно наблюдается дымка, при ухудшении видимости до 1 км и менее - туман. В сухую погоду видимость может ухудшаться дымом, пылью или мглою.
Явления - указаны атмосферные явления, наблюдавшиеся в срок или в последний час перед сроком; фигурными скобками обозначены явления, наблюдавшиеся между сроками (за 1-3 часа до срока); квадратными скобками обозначены град или гололедные отложения с указанием их диаметра в мм.
Облачность - указаны через наклонную черту общая и нижняя облачность в баллах и высота нижней границы облаков в метрах; квадратными скобками обозначены формы облаков: Ci - перистые, Cs - перисто-слоистые, Cc - перисто-кучевые, Ac - высококучевые, As - высокослоистые, Sc - слоисто-кучевые, Ns - слоисто-дождевые, Cu - кучевые, Cb - кучево-дождевые. Подробнее классификацию облаков см. в Атласе облаков (PDF).
T - Температура воздуха - температура, измеренная на высоте 2 м над землей.
Td - Температура точки росы - температура, при понижении до которой содержащийся в воздухе водяной пар достигнет насыщения.
f - Относительная влажность воздуха - влажноcть воздуха, измеренная на высоте 2 м над землей.
Te - Эффективная температура - температура, которую ощущает одетый по сезону человек в тени. Характеристика душности погоды. При расчете учитывается влияние влажности воздуха и скорости ветра на теплоощущения человека.
Tes - Эффективная температура на солнце - температура, которую ощущает человек, с поправкой на солнечный нагрев. Характеристика знойности погоды. Зависит от высоты солнца над горизонтом, облачности и скорости ветра. Ночью, в пасмурную погоду, а также при ветре 12 м/с и более поправка равна нулю.
P - Атмосферное давление - приведенное к уровню моря атмосферное давление.
Po - Атмосферное давление - измеренное на уровне метеостанции атмосферное давление.
Tmin - Минимальная температура - минимум температуры воздуха на высоте 2 м над землей.
Tmax - Максимальная температура - максимум температуры воздуха на высоте 2 м над землей.
R - Количество осадков - Количество выпавших осадков за период времени, мм. При наведении курсора мыши на число - период времени, за который выпало указанное количество осадков.
R24 - Количество осадков - Количество выпавших осадков за 24 часа, мм.
S - Снежный покров - Высота снежного покрова, см. При наведении курсора мыши на число - состояние снежного покрова и степень покрытия местности в баллах.